Location: Westminster
(33.3626°N, 96.4619°W)
Time: 22:18:57
(UTC+00:00)

Cosmos 1763 Rocket - Pass Details

Date: 04 July 2022
Orbit: 732 x 780 km, 74.0° (Epoch: 13 August)

Event Time Altitude Azimuth Distance (km) Brightness Sun altitude
Exits shadow 06:21:43 18° 61° (ENE) 1,822 5.6 -33.7°
Drops below altitude 10° 06:23:29 10° 45° (NE) 2,307 6.4 -33.7°
Sets 06:26:14 0° 32° (NNE) 3,245 7.5 -33.8°
